Location: Libas
(9.8833°N, 125.9833°E)
Time: 20:33:09
(UTC+00:00)

FENGYUN 3A - Pass Details

Date: 27 October 2020
Orbit: 824 x 835 km, 98.4° (Epoch: 26 November)

Event Time Altitude Azimuth Distance (km) Brightness Sun altitude
Rises 20:04:36 0° 6° (N) 3,372 6.8 -20.4°
Reaches altitude 10° 20:06:58 10° 3° (N) 2,438 6.0 -19.8°
Maximum altitude 20:12:18 63° 283° (WNW) 925 3.6 -18.5°
Drops below altitude 10° 20:17:38 10° 203° (SSW) 2,435 6.0 -17.2°
Sets 20:20:01 0° 199° (SSW) 3,367 6.7 -16.7°
